[[{"header":{"parameterUnit":"m.s-1","parameterCategory":1,"la1":30.2991,"la2":30.254,"lo1":-89.0895,"lo2":-89.0444,"dy":0.0017,"dx":0.0017,"nx":28,"ny":28,"refTime":"2023-08-24T09:00:00:Z","depth":0,"parameterNumber":2,"parameterNumberName":"U-component_of_WINDS"},"data":[0,0,0,0,0,0,0,0,0,0,0,0,0,0,0,0,0,0,0,0,0,0,0,0,0,0,0,0,0,0,0,0,0,0,0,0,0,0,0,0,0,0,0,0,0,0,0,0,0,0,0,0,0,0,0,0,0,0,0.6008,0.6008,0,0.6023,0.6023,0.6023,0.6034,0.6035,0.6035,0.6035,0.6049,0.6049,0.6049,0,0,0,0,0,0,0,0,0,0,0,0,0,0.5988,0.5989,0.6008,0.6008,0.6008,0.6023,0.6023,0.6023,0.6034,0.6035,0.6035,0.6035,0.6049,0.6049,0.6049,0,0,0,0,0,0,0,0,0,0,0,0,0,0.5999,0.5989,0.6008,0.6016,0.6017,0.6023,0.6023,0.6023,0.6034,0.6035,0.6035,0.6035,0.6049,0.6049,0.6049,0.6048,0,0,0.6051,0.6051,0,0,0,0,0,0,0,0,0.5999,0.6,0.6014,0.6015,0.6016,0.6027,0.6021,0.6032,0.6034,0.6028,0.6035,0.6035,0.6041,0.6042,0.6045,0.6049,0.605,0.6051,0.6051,0.6051,0.6051,0,0,0,0,0,0,0,0.5998,0.5999,0.6014,0.6015,0.6016,0.6018,0.602,0.6023,0.6033,0.6028,0.6029,0.6031,0.6042,0.6044,0.6045,0.605,0.6051,0.6051,0.6051,0.6051,0.6054,0.6053,0,0,0,0,0,0,0.5996,0.5999,0.6013,0.6014,0.6008,0.6018,0.602,0.6023,0.6033,0.6035,0.6031,0.6031,0.6044,0.6045,0.6046,0.6045,0.6051,0.6051,0.6052,0.6054,0.6054,0.6053,0,0,0,0,0,0,0.5996,0.5997,0.6013,0.6007,0.6009,0.6018,0.6022,0.6023,0.6026,0.6035,0.6037,0.6031,0.6044,0.6045,0.6048,0.6045,0.6052,0.6052,0.6054,0.6054,0.6053,0.6043,0,0,0,0,0,0,0.5995,0.5997,0.5997,0.6007,0.6009,0.6015,0.6022,0.6024,0.6027,0.6028,0.6036,0.6038,0.6044,0.6047,0.6048,0.6046,0.6052,0.6054,0.6054,0.6054,0.6044,0.6043,0.6042,0,0,0,0,0,0.5994,0.5994,0.5997,0.5999,0.6009,0.6015,0.6016,0.6023,0.6027,0.6026,0.6032,0.6038,0.6046,0.6047,0.6048,0.6047,0.6054,0.6054,0.6054,0.6044,0.6043,0.6042,0,0,0,0,0,0,0.5983,0.5995,0.5999,0.6001,0.6007,0.6017,0.6017,0.6022,0.6026,0.6027,0.6036,0.6037,0.6039,0.6043,0.6045,0.6046,0.6051,0.605,0.6043,0.6042,0.6041,0.6039,0.6053,0,0,0,0,0,0.5981,0.5985,0.5995,0.5996,0.5998,0.6007,0.601,0.6015,0.6021,0.6023,0.6029,0.6034,0.6038,0.604,0.6044,0.6044,0.6046,0.6044,0.6043,0.6042,0.6041,0.6041,0.604,0.6052,0.6052,0.6052,0,0,0.5977,0.5984,0.5985,0.5994,0.5999,0.6002,0.6009,0.6012,0.6014,0.6023,0.6026,0.6031,0.6037,0.6038,0.6039,0.6042,0.6038,0.6041,0.604,0.6041,0.6041,0.6039,0.6038,0.6052,0.6052,0.6052,0,0,0.597,0.5976,0.5977,0.5982,0.599,0.5995,0.5995,0.6004,0.6008,0.6011,0.6017,0.602,0.6026,0.603,0.6033,0.6028,0.6033,0.6029,0.6023,0.6023,0.6022,0.6021,0.6018,0.6017,0.6028,0.6028,0.6028,0,0.5964,0.5969,0.5977,0.598,0.5983,0.5992,0.5993,0.5997,0.6005,0.6007,0.601,0.6017,0.6022,0.6025,0.6023,0.6025,0.6025,0.6028,0.6021,0.6021,0.602,0.6018,0.6017,0.6028,0.6028,0.6028,0.6028,0,0.596,0.5964,0.5964,0.5972,0.5975,0.5977,0.5985,0.5987,0.5992,0.5997,0.5999,0.6006,0.6011,0.6012,0.6016,0.6014,0.6015,0.602,0.6025,0.6018,0.6016,0.6015,0.6027,0.6027,0.6027,0.6028,0,0,0.5948,0.596,0.5959,0.5963,0.5971,0.5974,0.5976,0.5981,0.5982,0.5988,0.5989,0.5994,0.5998,0.6001,0.6006,0.6006,0.6,0.601,0.6011,0.6008,0.5998,0.5994,0.5993,0.6004,0.6004,0.6004,0.5997,0,0.5942,0.5946,0.5953,0.5955,0.5958,0.5966,0.5967,0.5973,0.5977,0.598,0.5985,0.5988,0.5994,0.5996,0.5996,0.6001,0.5998,0.6002,0.6005,0.6005,0.6002,0.5992,0.5988,0.5981,0.5996,0.5996,0.5996,0,0.5936,0.5941,0.5943,0.5951,0.5952,0.5953,0.5958,0.5961,0.5967,0.597,0.5974,0.5979,0.5981,0.5986,0.5988,0.599,0.5992,0.5994,0.5994,0.5994,0.5999,0.5991,0.598,0.5978,0.5995,0.5995,0.5995,0,0.5926,0.5933,0.5934,0.5937,0.5947,0.5947,0.5951,0.5957,0.5959,0.5964,0.5965,0.5969,0.5972,0.5975,0.5981,0.5984,0.5982,0.5988,0.5985,0.5984,0.5983,0.5983,0.5971,0.5985,0.5985,0.5985,0.5985,0,0.5919,0.5919,0.593,0.5931,0.5932,0.594,0.594,0.5945,0.595,0.5951,0.5959,0.596,0.5969,0.5971,0.5976,0.5977,0.5978,0.598,0.5981,0.5979,0.5979,0.598,0.598,0.5985,0.5985,0.5985,0.5985,0,0.5907,0.5914,0.5917,0.5925,0.5927,0.5927,0.5935,0.5936,0.5941,0.5943,0.5944,0.5952,0.5954,0.5961,0.5966,0.5969,0.5968,0.5971,0.5967,0.5967,0.5963,0.5963,0.5951,0.595,0.5965,0.5965,0.5965,0,0.5902,0.5902,0.5911,0.5913,0.5916,0.5919,0.5921,0.5929,0.5931,0.5938,0.5938,0.5941,0.5944,0.5949,0.5955,0.5958,0.596,0.5956,0.5961,0.5958,0.5959,0.5959,0.5959,0.5955,0.5954,0.5954,0.5954,0,0.5891,0.5895,0.5898,0.5903,0.5905,0.5909,0.5913,0.5914,0.5923,0.5925,0.5928,0.5931,0.5935,0.5938,0.5943,0.5946,0.5951,0.5953,0.5952,0.5949,0.5946,0.5947,0.5963,0.5953,0.5953,0.5953,0.5953,0.5953,0.5882,0.5883,0.5889,0.5892,0.5896,0.59,0.5901,0.5906,0.5909,0.5914,0.5918,0.592,0.5926,0.5932,0.5935,0.5937,0.5939,0.5939,0.5938,0.5938,0.5936,0.5947,0.5938,0.5938,0.5938,0.5938,0.5938,0,0.5872,0.5876,0.5879,0.5884,0.5887,0.5892,0.5897,0.5898,0.59,0.5905,0.5908,0.5911,0.5914,0.592,0.5923,0.5923,0.5926,0.5924,0.5923,0.5924,0.5934,0.5934,0.5922,0.5922,0.5922,0.5922,0.5922,0.5922,0.5866,0.5868,0.5872,0.5874,0.5879,0.5881,0.5883,0.5886,0.589,0.5893,0.5896,0.59,0.5905,0.5908,0.5911,0.5913,0.5913,0.591,0.5913,0.5922,0.5923,0.5925,0.5925,0.5911,0.5911,0.5902,0.5902,0.5902]},{"header":{"parameterUnit":"m.s-1","parameterCategory":1,"la1":30.2991,"la2":30.254,"lo1":-89.0895,"lo2":-89.0444,"dy":0.0017,"dx":0.0017,"nx":28,"ny":28,"refTime":"2023-08-24T09:00:00:Z","depth":0,"parameterNumber":3,"parameterNumberName":"V-component_of_WINDS"},"data":[0,0,0,0,0,0,0,0,0,0,0,0,0,0,0,0,0,0,0,0,0,0,0,0,0,0,0,0,0,0,0,0,0,0,0,0,0,0,0,0,0,0,0,0,0,0,0,0,0,0,0,0,0,0,0,0,0,0,2.218,2.218,0,2.2124,2.2123,2.2123,2.206,2.2059,2.2058,2.2058,2.1998,2.1997,2.1997,0,0,0,0,0,0,0,0,0,0,0,0,0,2.2232,2.2232,2.2181,2.218,2.2179,2.2124,2.2123,2.2123,2.206,2.2059,2.2058,2.2057,2.1998,2.1997,2.1996,0,0,0,0,0,0,0,0,0,0,0,0,0,2.2196,2.2231,2.2181,2.2141,2.2137,2.2124,2.2123,2.2122,2.2061,2.2059,2.2058,2.2057,2.1999,2.1997,2.1996,2.2017,0,0,2.1993,2.1992,0,0,0,0,0,0,0,0,2.2198,2.2194,2.2148,2.2144,2.214,2.2098,2.212,2.2087,2.2061,2.209,2.2058,2.2056,2.2032,2.2028,2.2021,2.2014,2.2011,2.1993,2.1992,2.1992,2.1991,0,0,0,0,0,0,0,2.2201,2.2196,2.2158,2.2147,2.2142,2.2126,2.2119,2.2113,2.2069,2.2087,2.2082,2.2077,2.203,2.2022,2.2019,2.2011,2.1993,2.1992,2.1991,2.1991,2.2016,2.2018,0,0,0,0,0,0,2.221,2.2199,2.216,2.2156,2.2166,2.2126,2.2119,2.2113,2.2069,2.2061,2.2078,2.2074,2.2024,2.202,2.2016,2.2036,2.1992,2.1991,2.199,2.2015,2.2017,2.2018,0,0,0,0,0,0,2.2211,2.2207,2.2162,2.2176,2.2169,2.2127,2.212,2.2112,2.2104,2.2062,2.2054,2.2078,2.2023,2.2018,2.2017,2.2033,2.199,2.1989,2.2014,2.2016,2.2017,2.2077,0,0,0,0,0,0,2.2213,2.2208,2.2215,2.2177,2.2169,2.2165,2.2121,2.2112,2.2103,2.2097,2.206,2.2053,2.2022,2.2019,2.2016,2.2031,2.1988,2.2012,2.2014,2.2017,2.2073,2.2081,2.2087,0,0,0,0,0,2.2215,2.2234,2.2216,2.2212,2.2178,2.2166,2.2161,2.2125,2.2104,2.2111,2.2084,2.2054,2.2033,2.2019,2.2015,2.203,2.2011,2.2014,2.2017,2.207,2.2079,2.2087,0,0,0,0,0,0,2.2275,2.2228,2.2208,2.2216,2.2195,2.2155,2.2163,2.2136,2.2121,2.2116,2.2072,2.2064,2.2068,2.2049,2.2036,2.2047,2.2017,2.2019,2.2059,2.2067,2.2074,2.2078,2.1987,0,0,0,0,0,2.2289,2.2284,2.2243,2.2254,2.2245,2.2206,2.2199,2.2174,2.215,2.2141,2.2114,2.2092,2.208,2.2073,2.206,2.2071,2.2061,2.2079,2.2086,2.2092,2.2094,2.2097,2.2104,2.2028,2.2028,2.2028,0,0,2.2318,2.2292,2.2291,2.2265,2.2246,2.2241,2.2199,2.2195,2.219,2.214,2.2137,2.2117,2.2089,2.2094,2.2095,2.2079,2.2113,2.2096,2.2101,2.2099,2.2101,2.2108,2.2115,2.203,2.203,2.203,0,0,2.2368,2.2349,2.2355,2.2337,2.2309,2.2283,2.2285,2.2249,2.2233,2.223,2.2192,2.2185,2.2166,2.2148,2.2136,2.2179,2.215,2.2176,2.2212,2.2215,2.2221,2.2226,2.224,2.2246,2.2179,2.2179,2.2179,0,2.2408,2.2398,2.2361,2.2359,2.2349,2.2304,2.2309,2.2294,2.2263,2.2256,2.2239,2.2213,2.2191,2.2191,2.2201,2.2194,2.2193,2.2179,2.2224,2.2228,2.2232,2.2245,2.2251,2.2182,2.2182,2.2181,2.2181,0,2.2447,2.2442,2.245,2.2422,2.2412,2.2414,2.2376,2.2371,2.2346,2.2322,2.2319,2.2291,2.2271,2.227,2.2246,2.2265,2.2256,2.2232,2.22,2.2243,2.2255,2.2259,2.2187,2.2186,2.2185,2.2184,0,0,2.2532,2.2484,2.2487,2.2474,2.244,2.2434,2.2434,2.2415,2.241,2.2391,2.2388,2.2373,2.2351,2.2337,2.2311,2.2314,2.2348,2.2289,2.2288,2.23,2.2367,2.2384,2.239,2.233,2.233,2.2331,2.2368,0,2.2575,2.2572,2.2539,2.2545,2.2538,2.2496,2.2495,2.2474,2.2452,2.2442,2.2417,2.2406,2.2378,2.2369,2.2371,2.2344,2.2361,2.2341,2.2325,2.2325,2.2332,2.2396,2.2415,2.2451,2.2373,2.2374,2.2374,0,2.2624,2.2608,2.2613,2.2579,2.2575,2.2575,2.2554,2.2547,2.2521,2.2504,2.249,2.246,2.2456,2.2428,2.2421,2.2408,2.24,2.2386,2.2387,2.2382,2.2351,2.2392,2.2462,2.2467,2.2381,2.238,2.238,0,2.2684,2.2663,2.2663,2.2653,2.2613,2.2614,2.2598,2.2571,2.2562,2.2544,2.2537,2.2519,2.2509,2.2495,2.2461,2.2443,2.2457,2.2426,2.2442,2.2443,2.2445,2.2445,2.2513,2.2443,2.2443,2.2443,2.2443,0,2.2734,2.2738,2.269,2.269,2.2693,2.2655,2.266,2.2639,2.2616,2.261,2.2573,2.2569,2.2524,2.2515,2.2488,2.2486,2.2482,2.2467,2.246,2.2469,2.2471,2.2462,2.2458,2.2444,2.2444,2.2444,2.2444,0,2.28,2.2768,2.2765,2.2728,2.2719,2.2723,2.2691,2.2689,2.2664,2.2658,2.2654,2.2615,2.2602,2.2567,2.2544,2.2526,2.2531,2.2518,2.2539,2.2534,2.2551,2.2549,2.2614,2.262,2.2548,2.2549,2.255,0,2.2833,2.2836,2.2799,2.2793,2.2778,2.2769,2.2759,2.2722,2.2713,2.2685,2.2686,2.267,2.2654,2.2635,2.2604,2.2586,2.2572,2.2596,2.2569,2.2578,2.257,2.257,2.2569,2.2601,2.2602,2.2603,2.2604,0,2.2895,2.2879,2.2867,2.2849,2.2839,2.2823,2.2805,2.2802,2.2759,2.2751,2.2737,2.2726,2.2703,2.2687,2.2664,2.2646,2.2617,2.2613,2.2615,2.2624,2.2636,2.2629,2.2554,2.2611,2.261,2.261,2.2609,2.2609,2.2945,2.2945,2.2919,2.2906,2.2889,2.2873,2.2869,2.2844,2.2832,2.2811,2.279,2.2778,2.2752,2.2719,2.2702,2.2692,2.2677,2.2681,2.2682,2.2683,2.2687,2.2639,2.2688,2.2688,2.2687,2.2687,2.2687,0,2.3004,2.2985,2.2974,2.295,2.294,2.2915,2.2894,2.2887,2.2877,2.2856,2.2842,2.2825,2.2809,2.2778,2.2759,2.2756,2.2743,2.2753,2.2751,2.2747,2.2702,2.2701,2.2764,2.2764,2.2764,2.2764,2.2764,2.2764,2.3033,2.3032,2.3013,2.3002,2.2983,2.2971,2.2961,2.2945,2.2928,2.2912,2.2899,2.2878,2.2852,2.2831,2.2815,2.2806,2.28,2.2814,2.2801,2.2758,2.2751,2.2744,2.2743,2.2813,2.2814,2.2847,2.2847,2.2848]}]]